Boonton, New Jersey, United States (07005)
Lat: 40.90N, Lon: 74.41W
Wx Zone: NJZ008
Local Info
Past Weather Observations for Wednesday, November 19, 2014

NOTE: This archive is for the closest National Weather Service station to Boonton. Information may differ from the station used for current weather conditions.

Click here for Long-term Archive

Time Weather Temperature Dewpoint Humidity Pressure Winds Precip Visibility
23:53
Clear
28°F / -2°C 12°F / -11°C 51% 30.06 in
(1018 mb)
Variable 3.5 mph
(Variable 6 kph)
- 10SM
22:53
Mostly Cloudy
28°F / -2°C 10°F / -12°C 47% 30.09 in
(1019 mb)
Calm - 10SM
21:53
Overcast
28°F / -2°C 10°F / -12°C 47% 30.12 in
(1020 mb)
SSW 3.5 mph
(SSW 6 kph)
- 10SM
20:53
Overcast
28°F / -2°C 9°F / -13°C 43% 30.12 in
(1020 mb)
SW 5.8 mph
(SW 9 kph)
- 10SM
19:53
Mostly Cloudy
28°F / -2°C 9°F / -13°C 43% 30.12 in
(1020 mb)
Calm - 10SM
18:53
Clear
28°F / -2°C 7°F / -14°C 40% 30.12 in
(1020 mb)
Variable 4.6 mph
(Variable 7 kph)
- 10SM
17:53
Clear
28°F / -2°C 7°F / -14°C 40% 30.15 in
(1021 mb)
Calm - 10SM
16:53
Clear
28°F / -2°C 5°F / -15°C 37% 30.15 in
(1021 mb)
Variable 5.8 mph
(Variable 9 kph)
- 10SM
15:53
Clear
30°F / -1°C 3°F / -16°C 31% 30.15 in
(1021 mb)
Variable 4.6 mph
(Variable 7 kph)
- 10SM
14:53
Clear
30°F / -1°C 1°F / -17°C 29% 30.18 in
(1022 mb)
W 6.9 mph
(W 11 kph)
- 10SM
13:53
Clear
30°F / -1°C 3°F / -16°C 31% 30.18 in
(1022 mb)
SW 9.2 mph
(SW 15 kph)
- 10SM
12:53
Clear
30°F / -1°C 3°F / -16°C 31% 30.21 in
(1023 mb)
SSW 5.8 mph
(SSW 9 kph)
- 10SM
11:53
Clear
28°F / -2°C 3°F / -16°C 34% 30.24 in
(1024 mb)
WNW 8.1 mph
(WNW 13 kph)
- 10SM
10:53
Clear
27°F / -3°C 3°F / -16°C 36% 30.27 in
(1025 mb)
SSW 8.1 mph
(SSW 13 kph)
- 10SM
09:53
Clear
25°F / -4°C 3°F / -16°C 39% 30.27 in
(1025 mb)
WNW 10.4 mph
(WNW 17 kph)
- 10SM
08:53
Clear
23°F / -5°C 3°F / -16°C 42% 30.27 in
(1025 mb)
W 8.1 mph
(W 13 kph)
- 10SM
07:53
Clear
21°F / -6°C 3°F / -16°C 45% 30.27 in
(1025 mb)
Variable 6.9 mph
(Variable 11 kph)
- 10SM
06:53
Clear
19°F / -7°C 3°F / -16°C 49% 30.24 in
(1024 mb)
Variable 5.8 mph
(Variable 9 kph)
- 10SM
05:53
Clear
19°F / -7°C 3°F / -16°C 49% 30.21 in
(1023 mb)
SSW 6.9 mph
(SSW 11 kph)
- 10SM
04:53
Clear
21°F / -6°C 1°F / -17°C 42% 30.18 in
(1022 mb)
W 9.2 mph
(W 15 kph)
- 10SM
03:53
Clear
21°F / -6°C 1°F / -17°C 42% 30.18 in
(1022 mb)
W 11.5 mph
(W 19 kph)
- 10SM
02:53
Clear
21°F / -6°C 1°F / -17°C 42% 30.15 in
(1021 mb)
SSW 11.5 mph
(SSW 19 kph)
- 10SM
01:53
Clear
21°F / -6°C 1°F / -17°C 42% 30.15 in
(1021 mb)
W 8.1 mph
(W 13 kph)
- 10SM
00:53
Clear
21°F / -6°C 1°F / -17°C 42% 30.12 in
(1020 mb)
W 9.2 mph
(W 15 kph)
- 10SM
Time Weather Temperature Dewpoint Humidity Pressure Winds Precip Visibility


Weather for websites

WeatherForYou.com, LLC is not responsible for any damages or problems caused by this service. Current weather conditions are obtained from the closest station including government and personal stations which may have varying degrees of accuracy. Weather forecasts are derived from the NOAA NDFD. Like all things, this site belongs to Jesus Christ... He just trusts me to maintain it. If you have any questions or comments email webmaster@weatherforyou.com

Copyright © 2014, WeatherForYou.com LLC. All rights reserved.